Theta_e
323 323 323 324 324 324 323 321 319 319 319 317 318 318 319 318 317 317 317 317 317 317 316 317 317 318 319 313 312 330 337 333 323 327 326 323 318 318 322 329 332 328 331 331 332 334 335
324 323 323 323 323 323 323 322 320 318 318 317 317 318 318 317 316 317 317 316 316 316 316 317 318 317 318 308 319 330 323 318 319 324 323 322 319 320 324 329 327 332 332 331 334 334 331
326 325 324 323 323 323 322 322 321 318 318 318 316 317 317 316 316 315 315 315 315 316 317 317 318 319 316 311 320 333 326 321 321 324 320 322 323 319 331 327 330 330 326 332 331 333 330
325 325 324 324 323 323 322 322 321 318 318 317 317 317 317 316 315 315 314 314 314 316 317 317 318 320 314 316 332 331 326 325 325 326 324 324 323 323 329 331 327 324 326 322 331 333 331
324 324 323 323 323 322 322 322 321 319 319 318 317 317 316 316 315 314 313 313 316 317 318 319 320 319 309 319 324 326 325 320 320 321 322 321 320 324 328 321 322 322 315 318 325 332 330
323 322 323 322 323 322 322 321 320 319 318 318 317 317 316 316 315 314 313 315 319 318 320 322 320 313 315 311 322 321 323 321 316 315 314 313 315 319 322 319 310 314 315 320 323 329 329
322 322 321 321 322 322 321 319 319 319 318 318 317 317 317 315 315 314 315 325 321 319 319 315 311 314 311 320 322 317 318 314 314 312 307 311 309 313 318 321 318 318 317 315 322 332 328
321 320 319 319 320 320 320 318 319 318 317 317 317 317 316 315 313 313 316 318 317 318 311 316 314 316 318 321 313 316 318 311 309 305 310 308 306 314 320 320 317 316 316 317 326 330 327
320 320 320 319 319 319 319 318 318 318 317 317 317 316 314 313 312 313 320 319 324 322 312 311 313 314 315 318 313 313 316 314 308 306 308 306 310 315 318 317 313 315 315 317 319 327 327
320 319 319 319 319 319 319 317 318 318 317 317 316 315 314 313 309 323 318 323 323 322 306 305 309 314 317 316 312 318 317 313 309 305 308 309 313 315 315 314 315 310 316 318 316 320 314
319 319 319 319 318 319 319 317 317 317 316 316 315 314 313 310 318 317 320 324 323 320 295 308 310 321 318 312 313 313 318 313 306 307 309 307 310 311 312 313 317 311 317 316 318 317 316
319 318 318 318 318 318 318 317 317 317 316 315 314 313 312 316 320 321 324 323 321 304 294 304 311 311 311 314 313 313 312 317 315 310 311 312 316 315 314 316 315 317 314 314 315 314 306
318 318 318 318 318 318 318 316 317 316 315 314 312 311 312 321 319 324 323 318 305 297 307 303 306 310 309 309 311 309 309 309 306 304 305 310 310 314 314 311 314 314 311 304 302 304 304
318 318 318 317 317 317 317 317 317 316 314 313 310 309 314 320 324 323 319 311 299 302 304 309 308 309 306 309 309 309 309 306 310 309 305 304 301 310 313 311 309 310 311 306 300 302 306
318 318 318 317 316 316 317 316 316 315 314 312 308 322 321 322 322 322 315 303 301 305 307 305 306 304 304 307 308 309 308 307 308 310 304 304 304 312 312 313 312 309 307 314 307 308 305
317 316 317 317 316 316 317 316 316 315 313 311 322 317 317 321 323 317 312 301 306 310 309 308 301 306 302 305 305 306 307 310 308 310 314 308 303 309 310 312 312 310 314 305 308 301 300
317 317 317 316 316 316 317 316 316 314 312 310 321 313 320 324 322 316 305 306 308 311 311 308 306 305 305 305 305 305 306 309 310 310 312 311 308 306 309 307 307 307 307 309 309 308 302
317 317 316 317 316 316 317 316 315 313 310 310 320 310 323 325 313 313 307 308 302 309 311 309 309 308 306 306 306 306 305 308 312 312 306 312 309 304 306 312 312 312 308 309 304 303 306
317 317 317 316 316 316 317 315 314 312 311 321 318 315 323 321 307 307 309 307 308 307 308 308 306 309 309 306 304 305 307 311 311 311 311 311 307 302 302 308 311 309 311 310 309 309 305
316 316 316 316 317 316 317 315 314 312 311 317 318 309 315 318 316 310 307 305 303 307 307 308 307 310 307 305 308 305 306 309 310 311 315 313 308 306 297 304 308 306 307 309 309 304 306
315 315 315 316 317 317 316 315 314 313 312 317 319 312 315 307 310 311 310 306 302 303 308 309 306 307 306 304 304 305 307 309 310 309 311 310 305 307 307 307 308 307 307 307 306 307 305
315 316 316 316 317 317 316 316 315 314 311 322 318 317 315 314 311 310 304 305 303 304 306 304 305 305 307 306 307 304 307 307 306 310 309 310 303 306 304 306 306 304 306 307 308 309 308
314 315 316 316 317 318 317 316 315 314 313 324 326 324 319 306 311 309 307 306 305 308 307 307 306 306 304 306 309 311 312 312 311 309 308 306 305 303 299 305 304 301 305 306 308 311 311
315 315 316 317 316 317 317 316 316 315 313 324 326 324 315 307 310 309 307 307 306 308 305 306 308 306 310 312 311 310 310 311 310 310 311 308 307 305 301 304 296 305 313 311 309 312 314
315 316 316 316 316 316 317 317 316 316 314 320 327 323 318 308 310 308 307 307 308 308 306 306 309 310 313 310 304 302 302 304 306 309 309 310 308 303 299 299 302 306 309 308 307 307 314
315 315 316 316 316 316 317 317 316 316 314 319 327 327 322 313 309 311 309 309 308 308 307 308 313 315 312 307 305 296 296 300 300 302 309 308 310 304 302 297 293 303 309 313 313 304 316
313 314 315 315 316 316 316 316 316 317 315 316 326 331 324 317 316 316 311 310 312 309 306 309 310 310 313 304 301 301 298 303 300 299 301 302 303 300 300 298 302 309 310 311 299 307 317
313 314 315 315 315 316 316 316 316 316 315 316 328 332 325 316 316 317 316 314 314 313 306 312 307 310 307 303 303 304 302 302 303 304 302 301 300 299 301 297 294 313 310 304 316 319 319
313 314 315 315 315 316 316 316 316 317 315 315 324 329 330 321 318 322 320 320 317 315 311 313 309 311 310 306 308 307 304 303 302 298 308 299 303 301 302 303 314 314 316 319 320 319 321
Wind_Speed
12 13 13 12 12 11 10 10 11 11 10 10 11 11 11 9 9 8 7 7 7 7 7 8 9 9 10 9 5 8 11 13 14 17 18 15 15 15 14 7 9 8 13 8 15 9 12
11 12 12 12 12 11 11 10 10 11 11 10 11 11 10 9 8 8 7 6 6 7 7 8 8 7 10 14 4 11 12 17 15 19 16 16 10 14 11 7 5 11 14 11 7 14 9
11 11 12 11 11 11 11 11 11 11 12 10 10 11 11 10 9 8 7 7 7 7 8 7 6 9 12 5 2 7 12 16 17 16 16 15 9 10 9 7 4 14 10 10 13 11 14
13 12 12 12 11 11 11 11 10 11 12 10 9 10 10 9 9 8 8 8 8 8 7 7 7 11 9 4 5 8 13 14 14 15 13 12 2 17 16 1 11 15 13 9 12 13 10
14 13 12 13 13 12 12 12 10 11 10 9 8 9 9 9 8 8 8 9 9 9 8 8 10 11 6 5 11 10 12 13 12 10 6 3 10 15 12 10 15 13 12 12 14 14 12
14 14 14 15 15 13 12 12 13 13 12 10 9 8 8 8 7 7 9 9 7 8 9 10 9 9 8 13 14 12 12 13 15 13 11 13 11 14 12 15 13 9 15 14 16 16 16
15 15 16 16 16 14 13 13 14 14 13 12 11 10 8 8 8 6 7 7 9 9 12 10 12 8 10 15 13 11 11 16 15 14 14 16 14 16 18 20 10 9 8 7 5 22 19
14 14 15 15 15 15 14 15 15 14 14 13 12 11 10 9 8 8 9 9 11 9 7 9 4 4 2 14 15 13 16 14 13 16 18 13 17 18 18 12 7 6 17 14 22 16 12
13 14 13 13 14 14 13 15 15 13 13 12 11 12 11 10 7 5 11 12 8 9 9 9 9 11 10 11 13 16 18 14 15 18 18 15 15 16 12 5 11 15 16 4 0 13 9
13 13 13 13 14 15 13 14 15 14 13 12 12 11 9 8 4 3 10 2 6 5 8 9 11 6 10 17 12 15 16 10 11 18 15 16 8 11 9 14 15 12 4 17 23 16 8
15 14 14 14 14 15 14 12 15 15 14 13 13 12 9 6 13 11 6 6 8 5 2 8 10 7 13 19 19 14 15 13 15 14 10 14 14 9 13 16 12 6 10 10 3 13 6
14 15 15 15 15 15 14 14 15 15 15 13 12 12 11 8 8 13 7 7 6 8 4 8 7 9 14 14 11 15 12 10 10 13 14 9 5 11 17 14 5 5 8 10 8 10 11
14 14 14 15 16 15 14 15 16 16 16 17 13 11 9 10 3 4 6 8 5 4 7 9 14 13 17 15 14 16 15 16 10 13 13 8 9 10 9 11 9 12 14 9 8 7 11
15 15 14 14 16 15 15 17 17 18 18 21 18 10 12 10 6 8 9 13 10 5 3 6 7 17 7 14 17 16 14 14 16 16 16 11 16 18 13 16 11 17 18 12 14 12 14
15 15 15 15 16 17 16 17 18 19 19 20 22 8 10 7 11 7 10 11 8 8 2 8 7 12 8 4 4 13 13 10 7 11 10 14 14 21 13 16 14 14 18 21 18 16 13
15 17 17 16 16 18 17 18 19 21 20 19 7 8 6 5 8 8 11 4 9 4 3 5 6 13 8 12 9 11 11 9 11 8 11 3 8 8 12 12 16 18 8 16 11 16 17
15 16 16 17 17 18 18 20 21 23 24 15 8 6 6 7 7 9 7 11 7 6 7 6 14 14 7 10 3 9 14 7 3 10 11 13 13 9 15 12 13 13 13 9 15 13 13
14 15 16 15 17 17 18 21 20 21 28 3 11 6 7 6 10 8 8 6 6 8 2 2 6 7 2 3 7 7 8 9 5 4 10 11 8 15 16 18 17 10 18 16 10 12 13
15 17 18 17 15 17 18 20 19 18 16 8 7 9 6 7 8 7 9 7 11 5 5 3 3 5 5 2 4 4 9 6 2 8 12 2 10 4 6 13 10 12 12 16 19 17 16
15 16 18 18 17 16 17 19 18 16 15 6 6 6 6 8 8 11 8 6 8 2 5 4 1 2 5 4 3 3 8 5 2 5 8 6 14 15 8 9 16 18 20 9 17 11 11
16 16 18 17 17 16 17 18 19 18 12 6 7 4 1 7 7 4 2 3 7 9 4 1 2 5 5 2 5 2 1 10 7 6 5 7 13 11 7 7 13 13 7 16 14 17 17
16 16 16 16 15 16 16 19 19 21 23 6 7 2 6 5 1 7 4 5 8 6 6 5 3 1 3 7 7 3 5 4 5 8 7 6 10 10 12 12 7 10 10 7 11 14 17
16 16 16 15 14 15 15 18 18 20 18 5 3 4 7 7 9 12 7 4 8 6 5 7 7 9 4 9 9 8 7 7 5 8 5 4 9 5 13 14 7 13 13 11 12 7 8
16 15 15 14 14 14 13 14 16 15 12 9 4 6 9 7 8 5 5 4 6 7 5 5 6 6 9 7 7 10 12 5 6 5 10 6 6 10 10 7 13 2 11 4 4 5 11
16 15 15 16 15 14 13 12 15 15 12 10 5 5 7 4 6 5 6 7 6 4 2 4 7 4 4 8 9 6 8 8 11 9 9 4 10 9 10 10 16 8 6 2 6 4 9
17 16 15 15 14 13 12 10 13 14 13 8 4 5 7 6 7 7 7 4 5 4 8 6 4 5 8 9 3 4 8 3 5 8 8 12 9 12 11 10 7 7 1 4 6 10 7
17 17 15 14 14 13 12 10 11 12 11 8 5 2 6 2 6 4 2 2 3 3 6 4 2 6 5 9 7 3 7 4 4 11 5 9 10 13 13 11 4 2 3 4 9 6 8
16 16 15 14 13 12 11 10 10 12 11 7 4 1 6 4 5 3 6 3 1 2 6 8 8 8 6 4 4 2 3 5 2 9 13 13 9 9 13 2 8 9 5 4 7 7 7
16 16 15 13 13 12 11 9 10 10 10 7 6 2 4 4 11 8 9 8 7 6 7 1 7 4 6 6 2 3 3 5 5 8 7 9 12 6 10 6 10 5 9 7 7 7 8
Wind_Direction
6 7 3 360 356 356 352 360 356 354 344 339 335 334 328 327 320 306 297 291 287 288 292 299 297 301 275 216 261 82 143 159 180 204 218 211 220 221 247 165 150 155 123 180 166 109 110
358 358 0 359 356 357 356 354 3 353 349 343 337 333 328 324 319 309 302 289 283 281 281 280 288 293 250 247 62 126 159 167 182 202 210 215 222 238 299 199 162 139 149 145 106 136 95
341 342 346 350 350 351 351 354 1 355 352 345 340 336 335 332 324 316 308 295 285 278 273 271 259 251 263 323 303 181 178 181 180 206 208 216 241 237 262 203 118 139 144 150 138 136 131
355 351 347 350 347 348 347 350 357 352 349 348 338 336 338 339 327 316 303 288 279 274 261 254 245 245 279 70 325 185 191 183 182 206 225 206 230 266 265 151 196 188 166 148 152 140 155
360 355 355 352 355 356 354 351 352 347 349 343 342 335 336 335 328 315 298 279 262 247 237 235 230 236 222 134 199 163 193 178 172 180 245 62 244 240 214 217 204 208 203 141 165 185 156
358 356 360 1 354 355 352 354 350 348 349 342 336 327 330 324 312 307 292 266 185 201 215 210 267 240 210 198 149 163 173 190 188 176 181 214 217 218 231 219 220 211 176 192 162 168 169
359 356 358 355 354 352 353 352 350 350 348 339 333 329 321 322 318 304 286 196 200 198 212 282 144 270 163 128 145 175 172 176 195 195 199 202 214 213 205 219 139 286 279 288 15 165 163
358 357 356 355 352 351 350 351 345 346 343 339 333 329 327 317 308 291 270 263 31 347 280 194 227 282 280 158 166 161 179 181 198 208 210 185 220 215 241 222 237 219 273 166 176 147 131
352 348 349 350 351 346 346 349 339 340 335 331 327 328 326 319 320 226 240 301 331 325 250 146 186 200 190 206 177 165 195 211 196 215 204 206 203 228 219 208 232 230 236 191 200 161 159
349 347 349 346 342 339 340 347 334 335 330 325 324 324 317 324 269 235 240 158 294 331 260 128 173 166 171 215 186 157 212 217 203 215 204 231 219 196 185 232 230 234 223 111 272 177 174
354 352 348 345 340 339 336 340 332 330 325 321 325 322 309 260 322 261 25 283 330 235 219 145 129 121 165 220 120 174 201 224 215 212 207 214 158 210 216 224 214 84 282 256 240 149 155
356 351 349 344 339 337 334 339 332 326 321 319 322 317 311 209 223 267 297 289 252 234 124 141 136 187 179 218 190 145 195 250 234 219 215 269 173 215 222 212 207 242 236 247 251 267 246
353 346 349 347 338 336 333 337 331 326 320 322 311 291 264 309 309 333 288 267 294 187 192 152 177 168 199 157 134 171 187 204 190 191 197 143 220 199 264 206 181 234 234 202 217 218 248
349 343 343 349 342 336 335 337 331 326 322 325 309 300 198 256 297 270 266 249 235 29 104 62 182 194 167 160 148 183 191 198 230 218 173 195 180 208 191 227 187 224 237 239 199 216 220
347 343 343 341 343 338 335 338 332 326 327 328 312 199 223 196 223 256 267 274 28 69 31 170 225 118 144 117 184 184 193 188 196 245 273 188 236 175 201 212 252 183 230 262 281 292 263
349 351 348 344 345 338 336 340 333 330 331 334 277 211 142 168 209 232 254 296 85 33 286 290 277 84 226 157 191 217 182 196 158 281 298 322 209 166 188 221 216 261 222 231 255 255 257
340 342 346 343 344 340 337 343 335 333 330 336 244 202 115 181 204 236 243 78 100 94 301 302 226 133 20 246 289 170 190 122 43 167 264 276 245 153 187 208 217 206 238 246 266 244 267
340 336 341 338 340 342 337 344 337 337 334 281 274 144 153 218 244 241 100 97 303 117 189 42 9 356 161 38 158 189 207 120 87 279 202 242 278 181 189 213 230 274 210 234 235 224 264
334 337 340 338 339 340 338 342 336 339 355 310 254 107 177 238 268 108 129 89 21 64 16 36 86 22 330 105 261 76 79 81 146 262 13 317 251 173 302 173 205 247 252 225 228 236 252
338 342 339 336 334 339 338 340 334 336 344 289 275 154 168 225 301 129 155 121 113 2 91 50 36 241 222 191 222 232 122 111 152 47 337 308 270 299 103 315 302 198 232 237 276 262 245
333 333 337 333 332 335 338 337 332 331 340 277 249 151 105 197 193 23 350 99 70 121 136 243 79 358 346 211 190 149 202 135 185 128 234 277 290 289 136 231 289 341 221 211 245 269 276
326 324 325 329 331 335 336 337 333 333 333 253 308 343 197 82 90 233 138 87 102 91 9 110 102 92 13 44 8 34 314 284 187 169 241 252 273 292 298 277 247 272 257 275 272 251 257
321 321 321 324 332 335 335 338 338 341 334 304 25 261 278 129 208 227 130 118 102 125 56 14 6 299 123 48 332 335 298 311 25 284 231 251 271 235 269 263 229 250 243 239 253 284 282
314 313 317 323 329 330 335 334 337 342 355 304 17 288 271 174 219 77 119 131 95 33 45 48 349 322 47 296 273 254 273 233 243 256 271 240 249 281 277 28 243 185 22 54 328 56 336
306 313 319 323 324 324 332 331 334 334 343 301 317 284 287 269 107 157 138 110 135 156 25 18 72 35 248 268 242 220 220 230 241 229 255 235 279 257 254 221 191 193 102 255 218 144 339
311 312 312 315 315 316 324 329 329 330 339 297 289 305 278 286 78 76 164 192 231 165 171 115 154 311 296 283 237 255 264 254 211 193 211 264 209 275 262 288 263 1 287 318 304 252 49
306 308 307 310 308 309 316 322 320 327 336 315 316 264 276 280 66 297 271 66 9 295 283 132 78 255 222 274 275 240 300 32 298 290 244 219 241 249 238 225 101 194 320 317 237 47 355
303 303 301 302 300 301 306 310 311 321 335 325 325 257 290 73 84 33 47 40 69 277 310 69 263 184 260 276 272 313 223 275 271 287 283 292 264 246 262 191 251 322 235 297 24 319 355
299 298 296 295 291 292 296 300 302 314 323 330 261 173 261 299 91 84 75 64 51 10 312 253 336 310 354 298 196 330 252 244 262 274 167 256 289 346 346 21 122 120 77 59 11 357 350